Regional Weather Roundup
Issued by NWS

Home | Current Version | Previous Version | Graphics & Text | Print | Product List | Glossary On
Versions: 1 2 3 4 5 6 7 8 9 10 11 12 13 14 15 16 17 18 19 20 21 22 23 24 25 26 27 28 29 30 31 32 33 34 35 36 37 38 39 40 41 42 43 44 45 46 47 48 49 50
346
ASUS45 KBOI 230010
RWRID

IDAHO REGIONAL WEATHER ROUNDUP
NATIONAL WEATHER SERVICE BOISE ID
600 PM MDT WED MAR 22 2017

NOTE: "FAIR" INDICATES FEW OR NO CLOUDS BELOW 12000 FEET
WITH NO SIGNIFICANT WEATHER AND/OR OBSTRUCTIONS TO VISIBILITY

IDZ012-014-230100-
SOUTHWEST IDAHO


CITY           SKY/WX    TMP DP  RH WIND       PRES   REMARKS
BOISE          CLOUDY    60  29  30 NW9       29.83F
CALDWELL       CLOUDY    61  34  36 NW8       29.83F
MOUNTAIN HOME  CLOUDY    60  31  33 VRB5      29.83S
$$

IDZ016-017-230100-
SOUTHCENTRAL IDAHO


CITY           SKY/WX    TMP DP  RH WIND       PRES   REMARKS
BURLEY         CLOUDY    49  35  58 W15       29.85R
JEROME         CLOUDY    49  38  65 S14       29.87R
TWIN FALLS     LGT RAIN  44  38  79 SE10      29.87F
$$

IDZ019>023-230100-
SOUTHEAST IDAHO


CITY           SKY/WX    TMP DP  RH WIND       PRES   REMARKS
IDAHO FALLS    PTSUNNY   51  36  56 CALM      29.84F
POCATELLO      PTSUNNY   51  39  63 NW5       29.85F
REXBURG        CLOUDY    52  32  46 S7        29.85F
$$

IDZ006-010-011-018-031-032-230100-
CENTRAL IDAHO MOUNTAINS


CITY           SKY/WX    TMP DP  RH WIND       PRES   REMARKS
MCCALL         MOSUNNY   42  32  67 N7        29.86S
HAILEY         MOSUNNY   46  25  42 S7        29.87S
STANLEY          N/A     43  20  39 W7        29.87S
SALMON         MOSUNNY   54  28  37 N8        29.78F
CHALLIS        MOSUNNY   55  22  27 NW15      29.78F
$$

IDZ002-004-006-007-026-230100-
NORTHERN IDAHO


CITY           SKY/WX    TMP DP  RH WIND       PRES   REMARKS
LEWISTON       LGT RAIN  49  44  83 SE5       29.90R
LOWELL           N/A     50  44  80 CALM      29.86R
COEUR D`ALENE  CLOUDY    49  40  71 W12       29.87R
MULLAN PASS    MIX PCPN  33  33 100 NW7       29.83S VSB 1/4 WCI  27
$$




USA.gov is the U.S. government's official web portal to all federal, state and local government web resources and services.